Location: İstanbul
(41.0082°N, 28.9784°E)
Time: 02:13:54
(UTC+02:00)

Oscar 11 - Pass Details

Date: 27 October 2021
Orbit: 614 x 623 km, 97.6° (Epoch: 01 December)

Event Time Altitude Azimuth Distance (km) Brightness Sun altitude
Rises 05:16:27 0° 35° (NE) 2,906 11.1 -25.6°
Reaches altitude 10° 05:20:05 10° 67° (ENE) 1,995 10.6 -24.9°
Maximum altitude 05:21:44 12° 90° (E) 1,866 10.5 -24.6°
Drops below altitude 10° 05:23:23 10° 112° (ESE) 1,990 10.5 -24.3°
Sets 05:26:58 0° 144° (SE) 2,891 10.9 -23.6°
